INTELSAT 34 (IS-34) (40874 NORAD) Tracking and Keplerian Element Data

This shows tracking and keplerian element data for the satellite.

Feedback or suggestion? Click here.




ElementValue
Catalog40874
NameINTELSAT 34 (IS-34)
Epoch Orbit1348
Epoch Day113.80942117
Epoch Year2019
RAAN255.8845
Inclination0.0182
Eccentricity2.1E-05
Argument of Perigee10.7171
Mean Anonmoly180.8461
Mean Motion1.00271966
Decay Rate-3.01E-06
L11 40874U 15039A 19113.80942117 -.00000301 00000-0 00000+0 0 9992
L22 40874 0.0182 255.8845 0000210 10.7171 180.8461 1.00271966 13489

Live tracking and technical data element details for INTELSAT 34 (IS-34) (NORAD 40874). INTELSAT 34 (IS-34) can be tracked NOW for your location showing map with azimuth and elevation plus other details from your city location.

Track the satellite on the map from your city or location and see movement details for azimuth, elevation, latitude, longitude, range, height, and movement on the map or in text.







IsCatalogInMostPopularTable: catalog: 40874, numindb: 193
Update: records affected: 1



GetName: 40874 INTELSAT 34 (IS-34)

Hit Count: updated at: Thu, 25 Apr 2019 19:57:45 GMT